• In Germany
  • List of Countries
  • For 7 days
  • Water Temperature
  • Satellite Maps
  • Weather Map
  • Weather Widgets
  • user-avatar
    Login

    Hourly Weather Orsha

    Today, 26 June, Monday

    Time Temperature Precipitation Wind Pressure Humidity
    00:00 +15°C° 0 mm 2 mps 739 mmHg 89%
    01:00 +15°C° 0 mm 2 mps 739 mmHg 89%
    02:00 +14°C° 0 mm 3 mps 738 mmHg 89%
    03:00 +14°C° 0 mm 3 mps 738 mmHg 89%
    04:00 +16°C° 0 mm 3 mps 738 mmHg 89%
    05:00 +16°C° 0 mm 3 mps 738 mmHg 89%
    06:00 +18°C° 0 mm 3 mps 738 mmHg 84%
    07:00 +19°C° 0 mm 3 mps 738 mmHg 79%
    08:00 +21°C° 0 mm 4 mps 738 mmHg 73%
    09:00 +22°C° 0.3 mm 4 mps 738 mmHg 72%
    10:00 +22°C° 0.3 mm 4 mps 738 mmHg 70%
    11:00 +23°C° 0.3 mm 4 mps 738 mmHg 69%
    12:00 +23°C° 0.4 mm 4 mps 738 mmHg 68%
    13:00 +23°C° 0.4 mm 5 mps 738 mmHg 68%
    14:00 +23°C° 0.4 mm 5 mps 737 mmHg 67%
    15:00 +23°C° 0.3 mm 5 mps 737 mmHg 67%
    16:00 +22°C° 0.3 mm 5 mps 737 mmHg 67%
    17:00 +22°C° 0.3 mm 4 mps 737 mmHg 67%
    18:00 +20°C° 0.1 mm 4 mps 737 mmHg 71%
    19:00 +19°C° 0.1 mm 3 mps 737 mmHg 74%
    20:00 +18°C° 0.1 mm 3 mps 737 mmHg 78%
    21:00 +17°C° 0 mm 3 mps 738 mmHg 80%
    22:00 +16°C° 0 mm 3 mps 738 mmHg 81%
    23:00 +16°C° 0 mm 3 mps 738 mmHg 82%

    Tomorrow, 27 June, Tuesday

    Time Temperature Precipitation Wind Pressure Humidity
    00:00 +14°C° 0 mm 3 mps 739 mmHg 85%
    01:00 +13°C° 0 mm 3 mps 739 mmHg 88%
    02:00 +12°C° 0 mm 3 mps 739 mmHg 91%
    03:00 +11°C° 0 mm 3 mps 739 mmHg 90%
    04:00 +11°C° 0 mm 3 mps 740 mmHg 89%
    05:00 +10°C° 0 mm 3 mps 740 mmHg 88%
    06:00 +12°C° 0 mm 3 mps 740 mmHg 80%
    07:00 +14°C° 0 mm 4 mps 740 mmHg 72%
    08:00 +15°C° 0 mm 4 mps 741 mmHg 63%
    09:00 +18°C° 0 mm 4 mps 741 mmHg 58%
    10:00 +19°C° 0 mm 5 mps 741 mmHg 53%
    11:00 +20°C° 0 mm 5 mps 741 mmHg 48%
    12:00 +21°C° 0 mm 5 mps 741 mmHg 46%
    13:00 +22°C° 0 mm 5 mps 741 mmHg 44%
    14:00 +22°C° 0 mm 5 mps 741 mmHg 42%
    15:00 +22°C° 0 mm 5 mps 741 mmHg 44%
    16:00 +22°C° 0 mm 5 mps 741 mmHg 46%
    17:00 +22°C° 0 mm 5 mps 741 mmHg 48%
    18:00 +20°C° 0 mm 4 mps 741 mmHg 57%
    19:00 +18°C° 0 mm 3 mps 741 mmHg 65%
    20:00 +16°C° 0 mm 2 mps 741 mmHg 73%
    21:00 +15°C° 0 mm 2 mps 742 mmHg 76%
    22:00 +14°C° 0 mm 2 mps 742 mmHg 79%
    23:00 +13°C° 0 mm 2 mps 742 mmHg 81%

    Day after tomorrow, 28 June, Wednesday

    Time Temperature Precipitation Wind Pressure Humidity
    00:00 +13°C° 0 mm 2 mps 742 mmHg 85%
    01:00 +12°C° 0 mm 2 mps 743 mmHg 88%
    02:00 +10°C° 0 mm 2 mps 743 mmHg 92%
    03:00 +10°C° 0 mm 2 mps 743 mmHg 91%
    04:00 +10°C° 0 mm 2 mps 743 mmHg 90%
    05:00 +11°C° 0 mm 1 mps 744 mmHg 89%
    06:00 +13°C° 0 mm 1 mps 744 mmHg 80%
    07:00 +15°C° 0 mm 1 mps 744 mmHg 71%
    08:00 +18°C° 0 mm 1 mps 744 mmHg 62%
    09:00 +19°C° 0 mm 1 mps 744 mmHg 55%
    10:00 +21°C° 0 mm 1 mps 745 mmHg 49%
    11:00 +21°C° 0 mm 2 mps 745 mmHg 43%
    12:00 +23°C° 0 mm 2 mps 744 mmHg 40%
    13:00 +24°C° 0 mm 2 mps 744 mmHg 38%
    14:00 +24°C° 0 mm 2 mps 744 mmHg 36%
    15:00 +24°C° 0 mm 1 mps 744 mmHg 37%
    16:00 +24°C° 0 mm 1 mps 744 mmHg 38%
    17:00 +24°C° 0 mm 1 mps 744 mmHg 40%
    18:00 +22°C° 0 mm 1 mps 744 mmHg 48%
    19:00 +19°C° 0 mm 2 mps 743 mmHg 56%
    20:00 +17°C° 0 mm 2 mps 743 mmHg 64%
    21:00 +16°C° 0 mm 2 mps 743 mmHg 68%
    22:00 +15°C° 0 mm 2 mps 743 mmHg 71%
    23:00 +13°C° 0 mm 3 mps 744 mmHg 74%

    29 June, Thursday

    Time Temperature Precipitation Wind Pressure Humidity
    00:00 +13°C° 0 mm 3 mps 743 mmHg 76%
    01:00 +13°C° 0 mm 3 mps 743 mmHg 79%
    02:00 +13°C° 0 mm 3 mps 743 mmHg 81%
    03:00 +14°C° 0 mm 3 mps 743 mmHg 81%
    04:00 +14°C° 0 mm 3 mps 743 mmHg 81%
    05:00 +16°C° 0 mm 3 mps 743 mmHg 81%
    06:00 +18°C° 0 mm 4 mps 743 mmHg 77%
    07:00 +20°C° 0 mm 4 mps 743 mmHg 73%
    08:00 +22°C° 0 mm 4 mps 743 mmHg 68%
    09:00 +25°C° 0 mm 5 mps 742 mmHg 63%
    10:00 +27°C° 0 mm 5 mps 742 mmHg 58%
    11:00 +29°C° 0 mm 6 mps 742 mmHg 53%
    12:00 +30°C° 0 mm 6 mps 741 mmHg 51%
    13:00 +32°C° 0 mm 6 mps 741 mmHg 49%
    14:00 +32°C° 0 mm 6 mps 740 mmHg 46%
    15:00 +32°C° 0.2 mm 6 mps 740 mmHg 50%
    16:00 +30°C° 0.2 mm 5 mps 740 mmHg 54%
    17:00 +30°C° 0.2 mm 5 mps 739 mmHg 58%
    18:00 +28°C° 0 mm 5 mps 739 mmHg 62%
    19:00 +27°C° 0 mm 5 mps 739 mmHg 66%
    20:00 +26°C° 0 mm 5 mps 739 mmHg 70%
    21:00 +25°C° 0 mm 5 mps 739 mmHg 71%
    22:00 +25°C° 0 mm 5 mps 739 mmHg 71%
    23:00 +23°C° 0 mm 5 mps 739 mmHg 71%

    30 June, Friday

    Time Temperature Precipitation Wind Pressure Humidity
    00:00 +22°C° 0.3 mm 5 mps 739 mmHg 77%
    01:00 +21°C° 0.3 mm 5 mps 739 mmHg 82%
    02:00 +20°C° 0.3 mm 5 mps 739 mmHg 88%
    03:00 +20°C° 0.1 mm 5 mps 738 mmHg 89%
    04:00 +20°C° 0.1 mm 5 mps 738 mmHg 90%
    05:00 +20°C° 0.1 mm 5 mps 738 mmHg 92%
    06:00 +21°C° 0.2 mm 5 mps 738 mmHg 90%
    07:00 +21°C° 0.2 mm 5 mps 737 mmHg 88%
    08:00 +22°C° 0.2 mm 6 mps 737 mmHg 86%
    09:00 +23°C° 0.1 mm 6 mps 737 mmHg 83%
    10:00 +24°C° 0.1 mm 6 mps 737 mmHg 79%
    11:00 +25°C° 0.1 mm 5 mps 737 mmHg 76%
    12:00 +26°C° 0.4 mm 6 mps 737 mmHg 71%
    13:00 +27°C° 0.4 mm 6 mps 736 mmHg 65%
    14:00 +28°C° 0.4 mm 6 mps 736 mmHg 60%
    15:00 +27°C° 0.6 mm 5 mps 736 mmHg 66%
    16:00 +26°C° 0.6 mm 4 mps 736 mmHg 72%
    17:00 +25°C° 0.6 mm 4 mps 736 mmHg 78%
    18:00 +22°C° 0.3 mm 3 mps 736 mmHg 81%
    19:00 +21°C° 0.3 mm 3 mps 737 mmHg 85%
    20:00 +19°C° 0.3 mm 3 mps 737 mmHg 89%
    21:00 +18°C° 0.3 mm 2 mps 737 mmHg 91%
    22:00 +17°C° 0.3 mm 2 mps 737 mmHg 92%
    23:00 +16°C° 0.3 mm 2 mps 738 mmHg 94%

    1 July, Saturday

    Time Temperature Precipitation Wind Pressure Humidity
    00:00 +16°C° 0.3 mm 2 mps 738 mmHg 94%
    01:00 +15°C° 0.3 mm 2 mps 738 mmHg 94%
    02:00 +14°C° 0.3 mm 3 mps 738 mmHg 95%
    03:00 +14°C° 0.1 mm 3 mps 738 mmHg 94%
    04:00 +14°C° 0.1 mm 3 mps 738 mmHg 93%
    05:00 +14°C° 0.1 mm 3 mps 738 mmHg 93%
    06:00 +17°C° 0 mm 4 mps 738 mmHg 84%
    07:00 +19°C° 0 mm 5 mps 738 mmHg 74%
    08:00 +20°C° 0 mm 6 mps 738 mmHg 65%
    09:00 +22°C° 0 mm 6 mps 738 mmHg 58%
    10:00 +23°C° 0 mm 7 mps 738 mmHg 51%
    11:00 +24°C° 0 mm 8 mps 738 mmHg 43%
    12:00 +26°C° 0 mm 8 mps 737 mmHg 41%
    13:00 +26°C° 0 mm 8 mps 737 mmHg 38%
    14:00 +27°C° 0 mm 8 mps 737 mmHg 35%
    15:00 +27°C° 0 mm 7 mps 737 mmHg 37%
    16:00 +27°C° 0 mm 6 mps 737 mmHg 39%
    17:00 +26°C° 0 mm 5 mps 737 mmHg 42%
    18:00 +25°C° 0 mm 5 mps 737 mmHg 47%
    19:00 +22°C° 0 mm 4 mps 737 mmHg 53%
    20:00 +20°C° 0 mm 4 mps 737 mmHg 59%
    21:00 +19°C° 0 mm 3 mps 737 mmHg 63%
    22:00 +18°C° 0 mm 3 mps 737 mmHg 66%
    23:00 +17°C° 0 mm 3 mps 737 mmHg 69%
    Show more